QPF
0.08 0.08 0.08 0.07 0.05 0.04 0.03 0.03 0.03 0.04 0.04 0.04 0.03 0.02 0.02 0.02 0.02 0.02 0.01 0.02 0.02 0.02 0.02 0.02 0.02 0.02 0.03 0.03 0.03 0.03 0.03 0.03 0.03 0.03 0.03 0.03 0.03 0.03
0.07 0.06 0.05 0.04 0.04 0.03 0.03 0.03 0.03 0.03 0.03 0.03 0.03 0.02 0.02 0.01 0.01 0.01 0.01 0.01 0.01 0.01 0.01 0.01 0.01 0.02 0.02 0.04 0.05 0.05 0.05 0.04 0.03 0.03 0.03 0.03 0.04 0.04
0.04 0.03 0.02 0.02 0.02 0.01 0.01 0.02 0.02 0.02 0.03 0.02 0.02 0.02 0.02 0.02 0.02 0.02 0.01 0.01 0.01 0.01 0.01 0.01 0.01 0.01 0.01 0.01 0.02 0.03 0.03 0.03 0.03 0.02 0.02 0.02 0.02 0.02
0.02 0.02 0.01 0.01 0.01 0.01 0.01 0.01 0.02 0.02 0.02 0.02 0.02 0.02 0.02 0.02 0.03 0.03 0.01 0.01 0.01 0.01 0.01 0.01 0.00 0.00 0.00 0.00 0.00 0.01 0.01 0.01 0.01 0.01 0.00 0.01 0.01 0.01
0.01 0.01 0.01 0.01 0.01 0.01 0.02 0.02 0.02 0.01 0.02 0.02 0.02 0.02 0.02 0.02 0.02 0.02 0.02 0.03 0.01 0.00 0.00 0.01 0.01 0.00 0.00 0.00 0.00 0.00 0.00 0.00 0.00 0.00 0.00 0.00 0.00 0.01
0.01 0.01 0.01 0.01 0.01 0.01 0.01 0.01 0.01 0.02 0.02 0.03 0.03 0.03 0.03 0.03 0.03 0.03 0.03 0.03 0.02 0.01 0.02 0.01 0.01 0.01 0.01 0.01 0.00 0.00 0.00 0.00 0.00 0.00 0.00 0.00 0.00 0.00
0.01 0.01 0.01 0.00 0.00 0.00 0.00 0.00 0.01 0.01 0.02 0.02 0.03 0.03 0.03 0.03 0.04 0.03 0.03 0.02 0.03 0.03 0.03 0.02 0.03 0.04 0.05 0.04 0.02 0.01 0.01 0.00 0.00 0.00 0.00 0.00 0.00 0.00
0.01 0.02 0.01 0.01 0.00 0.00 0.00 0.00 0.00 0.00 0.01 0.01 0.02 0.03 0.03 0.04 0.04 0.03 0.02 0.03 0.02 0.02 0.02 0.01 0.02 0.03 0.04 0.04 0.02 0.01 0.00 0.00 0.00 0.00 0.00 0.00 0.00 0.00
0.01 0.02 0.02 0.01 0.01 0.02 0.01 0.01 0.02 0.01 0.01 0.01 0.02 0.04 0.03 0.04 0.03 0.02 0.03 0.03 0.03 0.03 0.03 0.02 0.03 0.03 0.03 0.01 0.00 0.00 0.00 0.00 0.00 0.00 0.00 0.00 0.00 0.00
0.01 0.02 0.03 0.03 0.01 0.00 0.00 0.02 0.05 0.05 0.02 0.01 0.03 0.03 0.02 0.01 0.01 0.01 0.02 0.03 0.03 0.04 0.04 0.03 0.03 0.03 0.03 0.04 0.01 0.00 0.00 0.00 0.00 0.00 0.00 0.00 0.00 0.00
0.02 0.02 0.01 0.02 0.00 0.00 0.01 0.03 0.05 0.06 0.02 0.00 0.00 0.00 0.00 0.00 0.00 0.01 0.02 0.04 0.05 0.05 0.05 0.03 0.03 0.03 0.03 0.05 0.03 0.01 0.00 0.00 0.00 0.00 0.00 0.00 0.00 0.00
0.05 0.05 0.02 0.00 0.00 0.00 0.01 0.03 0.04 0.03 0.02 0.03 0.05 0.06 0.06 0.05 0.02 0.01 0.04 0.05 0.06 0.05 0.05 0.04 0.04 0.04 0.02 0.02 0.03 0.04 0.04 0.02 0.01 0.01 0.00 0.00 0.00 0.01
0.06 0.07 0.04 0.00 0.00 0.00 0.00 0.01 0.01 0.00 0.01 0.05 0.08 0.09 0.09 0.09 0.08 0.06 0.07 0.07 0.06 0.06 0.05 0.04 0.04 0.05 0.05 0.04 0.03 0.03 0.04 0.04 0.04 0.04 0.03 0.01 0.00 0.00
0.06 0.04 0.02 0.00 0.00 0.00 0.00 0.00 0.00 0.01 0.05 0.09 0.10 0.09 0.08 0.07 0.06 0.06 0.07 0.07 0.07 0.06 0.06 0.07 0.06 0.05 0.05 0.05 0.04 0.03 0.03 0.04 0.04 0.04 0.06 0.03 0.03 0.02
0.03 0.01 0.00 0.00 0.00 0.02 0.01 0.00 0.01 0.05 0.08 0.10 0.10 0.09 0.07 0.06 0.05 0.05 0.06 0.07 0.07 0.05 0.04 0.05 0.06 0.06 0.07 0.07 0.06 0.05 0.04 0.03 0.03 0.04 0.05 0.05 0.06 0.05
0.02 0.02 0.02 0.01 0.01 0.02 0.03 0.05 0.06 0.06 0.05 0.07 0.08 0.07 0.06 0.06 0.06 0.06 0.07 0.08 0.08 0.08 0.05 0.04 0.06 0.07 0.07 0.07 0.06 0.05 0.05 0.04 0.04 0.05 0.05 0.05 0.05 0.04
0.01 0.04 0.07 0.07 0.06 0.06 0.06 0.06 0.07 0.06 0.05 0.06 0.05 0.06 0.06 0.06 0.06 0.05 0.06 0.07 0.09 0.09 0.07 0.06 0.05 0.06 0.05 0.03 0.03 0.04 0.04 0.04 0.05 0.05 0.05 0.05 0.05 0.03
0.01 0.06 0.07 0.05 0.04 0.03 0.04 0.04 0.05 0.05 0.04 0.04 0.05 0.06 0.07 0.07 0.07 0.07 0.07 0.07 0.08 0.09 0.07 0.06 0.06 0.07 0.07 0.04 0.01 0.01 0.03 0.04 0.05 0.05 0.04 0.04 0.04 0.03
0.03 0.07 0.06 0.05 0.04 0.04 0.04 0.05 0.06 0.06 0.06 0.06 0.07 0.06 0.06 0.05 0.06 0.05 0.05 0.06 0.06 0.08 0.07 0.05 0.05 0.07 0.08 0.07 0.04 0.01 0.01 0.02 0.03 0.04 0.04 0.04 0.04 0.03
0.04 0.04 0.04 0.04 0.04 0.04 0.04 0.05 0.05 0.05 0.05 0.05 0.06 0.05 0.05 0.04 0.04 0.04 0.04 0.04 0.05 0.06 0.06 0.04 0.02 0.03 0.06 0.07 0.06 0.03 0.00 0.01 0.01 0.02 0.03 0.04 0.03 0.01
0.02 0.02 0.01 0.02 0.02 0.02 0.03 0.04 0.05 0.05 0.04 0.04 0.04 0.04 0.04 0.05 0.05 0.05 0.04 0.02 0.03 0.05 0.05 0.04 0.02 0.01 0.03 0.07 0.07 0.05 0.01 0.00 0.00 0.00 0.01 0.01 0.01 0.01
0.01 0.01 0.01 0.01 0.01 0.01 0.01 0.02 0.02 0.03 0.02 0.02 0.03 0.03 0.03 0.04 0.04 0.04 0.03 0.03 0.05 0.04 0.03 0.02 0.01 0.01 0.02 0.05 0.06 0.06 0.03 0.01 0.00 0.00 0.00 0.00 0.00 0.00
0.01 0.01 0.00 0.00 0.00 0.00 0.00 0.01 0.01 0.01 0.01 0.01 0.01 0.01 0.02 0.03 0.02 0.02 0.01 0.02 0.03 0.03 0.03 0.02 0.01 0.01 0.01 0.02 0.03 0.04 0.04 0.04 0.03 0.02 0.01 0.00 0.00 0.00
MSLP
1022.08 1022.07 1022.03 1021.92 1021.74 1021.48 1021.17 1020.82 1020.46 1020.13 1019.85 1019.65 1019.51 1019.45 1019.44 1019.45 1019.46 1019.46 1019.43 1019.36 1019.27 1019.18 1019.08 1019.01 1018.97 1018.96 1018.98 1019.02 1019.07 1019.10 1019.10 1019.07 1019.01 1018.91 1018.79 1018.66 1018.54 1018.44
1022.34 1022.31 1022.24 1022.11 1021.92 1021.66 1021.34 1020.99 1020.63 1020.29 1019.99 1019.75 1019.56 1019.43 1019.34 1019.27 1019.20 1019.11 1019.00 1018.87 1018.73 1018.59 1018.47 1018.39 1018.36 1018.37 1018.43 1018.52 1018.61 1018.70 1018.75 1018.77 1018.74 1018.67 1018.56 1018.42 1018.27 1018.13
1022.58 1022.52 1022.42 1022.28 1022.09 1021.83 1021.54 1021.21 1020.87 1020.54 1020.24 1019.97 1019.74 1019.55 1019.37 1019.20 1019.03 1018.84 1018.63 1018.41 1018.20 1018.01 1017.85 1017.75 1017.71 1017.73 1017.81 1017.92 1018.06 1018.19 1018.30 1018.37 1018.38 1018.35 1018.27 1018.14 1017.99 1017.82
1022.83 1022.74 1022.62 1022.47 1022.28 1022.05 1021.80 1021.51 1021.21 1020.91 1020.61 1020.33 1020.06 1019.80 1019.54 1019.28 1019.00 1018.70 1018.39 1018.09 1017.80 1017.54 1017.33 1017.19 1017.12 1017.12 1017.19 1017.31 1017.46 1017.61 1017.76 1017.87 1017.94 1017.95 1017.91 1017.82 1017.68 1017.52
1023.13 1022.99 1022.85 1022.69 1022.52 1022.33 1022.11 1021.87 1021.61 1021.34 1021.06 1020.77 1020.47 1020.15 1019.82 1019.47 1019.10 1018.71 1018.31 1017.92 1017.55 1017.22 1016.95 1016.76 1016.64 1016.60 1016.63 1016.72 1016.85 1017.01 1017.17 1017.31 1017.42 1017.48 1017.49 1017.44 1017.34 1017.20
1023.47 1023.29 1023.12 1022.95 1022.79 1022.62 1022.44 1022.24 1022.02 1021.78 1021.51 1021.22 1020.89 1020.53 1020.14 1019.72 1019.27 1018.81 1018.35 1017.89 1017.46 1017.07 1016.74 1016.48 1016.30 1016.19 1016.16 1016.20 1016.29 1016.42 1016.57 1016.72 1016.85 1016.95 1017.00 1017.00 1016.94 1016.83
1023.80 1023.59 1023.39 1023.22 1023.05 1022.90 1022.74 1022.57 1022.37 1022.14 1021.88 1021.57 1021.22 1020.83 1020.40 1019.94 1019.45 1018.95 1018.44 1017.94 1017.47 1017.04 1016.66 1016.34 1016.09 1015.91 1015.80 1015.77 1015.79 1015.87 1015.98 1016.11 1016.25 1016.37 1016.46 1016.50 1016.48 1016.41
1024.10 1023.85 1023.64 1023.44 1023.27 1023.11 1022.95 1022.78 1022.59 1022.36 1022.08 1021.76 1021.39 1020.98 1020.53 1020.05 1019.54 1019.03 1018.51 1018.00 1017.52 1017.07 1016.65 1016.29 1015.97 1015.72 1015.53 1015.41 1015.36 1015.37 1015.43 1015.52 1015.64 1015.76 1015.87 1015.94 1015.95 1015.91
1024.32 1024.05 1023.81 1023.60 1023.41 1023.23 1023.05 1022.86 1022.64 1022.39 1022.09 1021.75 1021.36 1020.93 1020.47 1019.99 1019.49 1018.99 1018.49 1018.00 1017.53 1017.08 1016.65 1016.26 1015.90 1015.59 1015.33 1015.13 1014.99 1014.92 1014.92 1014.96 1015.04 1015.15 1015.25 1015.32 1015.35 1015.33
1024.46 1024.18 1023.92 1023.68 1023.46 1023.25 1023.03 1022.80 1022.54 1022.25 1021.92 1021.54 1021.14 1020.70 1020.24 1019.77 1019.29 1018.82 1018.35 1017.90 1017.45 1017.02 1016.61 1016.20 1015.82 1015.47 1015.16 1014.90 1014.69 1014.55 1014.47 1014.45 1014.48 1014.55 1014.62 1014.68 1014.70 1014.68
1024.53 1024.24 1023.96 1023.70 1023.44 1023.18 1022.91 1022.63 1022.32 1021.98 1021.60 1021.20 1020.77 1020.32 1019.87 1019.41 1018.96 1018.52 1018.10 1017.68 1017.28 1016.89 1016.49 1016.11 1015.73 1015.36 1015.02 1014.71 1014.45 1014.25 1014.11 1014.02 1013.99 1013.99 1014.02 1014.04 1014.04 1014.00
1024.57 1024.27 1023.97 1023.67 1023.37 1023.06 1022.74 1022.40 1022.03 1021.64 1021.22 1020.79 1020.34 1019.88 1019.43 1018.99 1018.56 1018.16 1017.77 1017.40 1017.04 1016.68 1016.32 1015.97 1015.61 1015.25 1014.90 1014.58 1014.29 1014.04 1013.84 1013.70 1013.60 1013.53 1013.49 1013.46 1013.41 1013.34
1024.61 1024.29 1023.96 1023.62 1023.27 1022.91 1022.53 1022.14 1021.72 1021.29 1020.84 1020.38 1019.91 1019.45 1019.00 1018.56 1018.15 1017.77 1017.41 1017.07 1016.74 1016.43 1016.11 1015.80 1015.47 1015.15 1014.82 1014.50 1014.20 1013.93 1013.69 1013.50 1013.33 1013.20 1013.09 1012.99 1012.89 1012.77
1024.66 1024.31 1023.94 1023.56 1023.16 1022.75 1022.32 1021.88 1021.43 1020.97 1020.49 1020.01 1019.54 1019.07 1018.61 1018.18 1017.78 1017.40 1017.06 1016.74 1016.45 1016.17 1015.89 1015.62 1015.34 1015.06 1014.77 1014.49 1014.20 1013.93 1013.67 1013.44 1013.22 1013.03 1012.85 1012.69 1012.53 1012.36
1024.69 1024.30 1023.88 1023.45 1023.01 1022.56 1022.10 1021.64 1021.16 1020.69 1020.20 1019.72 1019.24 1018.76 1018.31 1017.87 1017.47 1017.09 1016.75 1016.45 1016.17 1015.92 1015.68 1015.45 1015.23 1015.00 1014.77 1014.52 1014.28 1014.02 1013.77 1013.51 1013.27 1013.03 1012.79 1012.57 1012.35 1012.14
1024.67 1024.22 1023.76 1023.29 1022.82 1022.35 1021.87 1021.40 1020.93 1020.45 1019.97 1019.49 1019.02 1018.54 1018.09 1017.65 1017.23 1016.85 1016.50 1016.20 1015.93 1015.69 1015.49 1015.30 1015.13 1014.96 1014.78 1014.60 1014.40 1014.18 1013.94 1013.70 1013.44 1013.18 1012.91 1012.65 1012.39 1012.14
1024.56 1024.07 1023.57 1023.08 1022.59 1022.12 1021.65 1021.19 1020.73 1020.27 1019.81 1019.35 1018.88 1018.41 1017.95 1017.50 1017.07 1016.68 1016.32 1016.00 1015.73 1015.51 1015.32 1015.17 1015.03 1014.92 1014.80 1014.67 1014.52 1014.35 1014.16 1013.93 1013.69 1013.43 1013.15 1012.88 1012.60 1012.32
1024.35 1023.84 1023.33 1022.83 1022.36 1021.90 1021.46 1021.03 1020.60 1020.17 1019.74 1019.29 1018.83 1018.36 1017.90 1017.43 1016.99 1016.57 1016.20 1015.87 1015.59 1015.36 1015.18 1015.05 1014.94 1014.86 1014.78 1014.70 1014.61 1014.48 1014.33 1014.15 1013.94 1013.71 1013.46 1013.19 1012.92 1012.65
1024.08 1023.57 1023.07 1022.61 1022.17 1021.76 1021.36 1020.98 1020.59 1020.19 1019.78 1019.34 1018.89 1018.42 1017.94 1017.46 1016.99 1016.55 1016.15 1015.80 1015.50 1015.26 1015.08 1014.94 1014.84 1014.77 1014.72 1014.67 1014.61 1014.53 1014.42 1014.29 1014.13 1013.94 1013.73 1013.51 1013.27 1013.02
1023.81 1023.34 1022.89 1022.49 1022.11 1021.76 1021.43 1021.09 1020.74 1020.37 1019.97 1019.54 1019.08 1018.59 1018.08 1017.58 1017.08 1016.62 1016.19 1015.81 1015.48 1015.22 1015.01 1014.86 1014.74 1014.66 1014.61 1014.56 1014.51 1014.45 1014.38 1014.29 1014.18 1014.05 1013.90 1013.73 1013.55 1013.35
1023.63 1023.23 1022.86 1022.54 1022.25 1021.97 1021.70 1021.41 1021.09 1020.73 1020.33 1019.88 1019.39 1018.87 1018.34 1017.80 1017.27 1016.77 1016.31 1015.90 1015.55 1015.25 1015.00 1014.81 1014.66 1014.54 1014.45 1014.38 1014.32 1014.26 1014.20 1014.13 1014.07 1013.99 1013.91 1013.81 1013.70 1013.57
1023.60 1023.30 1023.03 1022.81 1022.61 1022.40 1022.19 1021.93 1021.63 1021.27 1020.84 1020.36 1019.83 1019.27 1018.68 1018.10 1017.54 1017.00 1016.51 1016.07 1015.69 1015.35 1015.07 1014.83 1014.62 1014.45 1014.30 1014.18 1014.07 1013.98 1013.91 1013.86 1013.81 1013.78 1013.75 1013.72 1013.68 1013.62
1023.76 1023.56 1023.41 1023.29 1023.17 1023.03 1022.85 1022.62 1022.31 1021.92 1021.45 1020.92 1020.34 1019.72 1019.08 1018.46 1017.86 1017.29 1016.78 1016.31 1015.90 1015.53 1015.21 1014.92 1014.65 1014.41 1014.20 1014.00 1013.84 1013.70 1013.59 1013.51 1013.47 1013.45 1013.46 1013.48 1013.50 1013.51
Thickness
5599 5596 5593 5591 5589 5587 5585 5582 5578 5574 5572 5568 5564 5562 5558 5553 5550 5547 5543 5540 5538 5536 5533 5530 5527 5525 5523 5520 5518 5516 5514 5512 5511 5509 5509 5509 5510 5511
5585 5582 5578 5576 5574 5572 5569 5567 5564 5560 5555 5552 5548 5545 5541 5538 5535 5531 5528 5526 5524 5522 5519 5516 5513 5510 5508 5505 5503 5500 5497 5495 5494 5492 5492 5492 5493 5494
5569 5567 5564 5562 5559 5557 5554 5551 5548 5544 5539 5536 5533 5530 5526 5523 5520 5516 5514 5513 5511 5509 5507 5504 5501 5498 5494 5492 5489 5487 5484 5482 5480 5478 5477 5477 5478 5480
5554 5552 5549 5548 5544 5541 5538 5535 5532 5529 5524 5520 5517 5515 5512 5510 5507 5503 5501 5500 5497 5496 5495 5493 5490 5486 5484 5481 5479 5476 5473 5471 5468 5466 5466 5466 5467 5467
5541 5538 5535 5533 5529 5526 5523 5520 5517 5514 5510 5507 5504 5502 5499 5497 5494 5491 5489 5487 5485 5485 5484 5482 5480 5478 5475 5473 5470 5467 5465 5462 5460 5457 5455 5455 5455 5456
5528 5526 5522 5518 5514 5511 5509 5505 5502 5499 5497 5495 5493 5491 5488 5486 5482 5479 5478 5476 5475 5474 5473 5473 5472 5471 5469 5466 5464 5461 5458 5455 5452 5450 5448 5447 5447 5447
5517 5514 5511 5506 5501 5498 5495 5491 5489 5487 5485 5484 5482 5480 5478 5475 5471 5469 5467 5467 5467 5467 5465 5465 5465 5463 5461 5460 5457 5455 5452 5449 5446 5444 5442 5441 5441 5440
5506 5503 5500 5496 5492 5489 5485 5482 5480 5478 5476 5473 5472 5470 5468 5466 5463 5461 5459 5458 5458 5460 5458 5458 5458 5457 5456 5455 5453 5450 5447 5444 5441 5439 5437 5436 5436 5436
5495 5493 5490 5487 5483 5479 5478 5477 5475 5473 5470 5466 5464 5462 5461 5459 5457 5454 5453 5451 5451 5453 5452 5452 5452 5451 5452 5451 5449 5446 5443 5440 5437 5436 5434 5433 5432 5432
5487 5485 5482 5478 5474 5470 5470 5470 5470 5469 5467 5463 5460 5458 5457 5455 5451 5449 5448 5448 5450 5450 5449 5446 5448 5448 5449 5447 5445 5443 5440 5437 5435 5433 5432 5430 5429 5429
5480 5477 5474 5471 5465 5463 5463 5464 5464 5463 5462 5459 5457 5456 5454 5453 5449 5446 5446 5446 5446 5447 5446 5444 5444 5444 5445 5445 5443 5440 5438 5436 5434 5432 5430 5428 5426 5425
5473 5471 5466 5463 5460 5458 5457 5457 5457 5456 5456 5456 5456 5455 5455 5453 5451 5447 5445 5443 5443 5443 5444 5442 5441 5440 5440 5442 5441 5439 5436 5434 5432 5430 5428 5426 5423 5421
5466 5465 5462 5458 5456 5455 5453 5452 5452 5450 5451 5454 5455 5455 5455 5454 5452 5450 5447 5445 5443 5442 5443 5441 5439 5438 5436 5437 5438 5438 5436 5434 5432 5430 5427 5424 5422 5419
5459 5459 5457 5455 5454 5453 5453 5453 5452 5450 5452 5454 5454 5454 5455 5454 5454 5453 5451 5449 5447 5446 5445 5442 5439 5438 5436 5435 5435 5436 5435 5433 5431 5428 5426 5423 5420 5417
5454 5454 5454 5454 5454 5454 5455 5453 5452 5452 5453 5453 5453 5454 5455 5455 5455 5455 5454 5453 5452 5450 5449 5446 5443 5440 5438 5435 5433 5434 5433 5432 5430 5427 5424 5421 5418 5415
5450 5452 5454 5456 5455 5454 5454 5454 5454 5454 5453 5453 5454 5455 5456 5456 5456 5456 5454 5453 5452 5451 5451 5449 5446 5443 5439 5437 5435 5433 5432 5430 5429 5427 5424 5421 5417 5413
5444 5449 5453 5455 5456 5456 5455 5455 5455 5455 5454 5454 5454 5455 5456 5456 5456 5456 5455 5454 5452 5451 5450 5450 5449 5446 5442 5438 5435 5434 5433 5432 5430 5428 5425 5421 5416 5412
5444 5449 5452 5453 5454 5453 5453 5453 5454 5454 5454 5454 5454 5454 5455 5455 5455 5456 5456 5455 5453 5452 5451 5450 5448 5446 5443 5439 5435 5434 5434 5433 5431 5429 5426 5422 5417 5412
5447 5450 5451 5451 5451 5451 5451 5451 5451 5452 5452 5453 5453 5454 5455 5456 5456 5456 5456 5455 5455 5454 5453 5451 5449 5446 5443 5440 5439 5435 5433 5434 5433 5430 5427 5424 5418 5414
5450 5450 5449 5449 5449 5449 5449 5449 5449 5450 5451 5451 5452 5452 5454 5455 5456 5457 5457 5456 5456 5455 5454 5453 5452 5449 5445 5442 5441 5439 5436 5434 5433 5431 5430 5427 5422 5416
5448 5448 5448 5447 5447 5447 5447 5447 5447 5448 5448 5449 5450 5451 5453 5454 5455 5457 5458 5457 5457 5457 5456 5455 5455 5453 5451 5449 5445 5442 5439 5437 5434 5431 5430 5429 5425 5420
5446 5445 5445 5445 5444 5444 5444 5445 5445 5445 5445 5445 5447 5449 5452 5454 5455 5456 5457 5458 5458 5458 5458 5459 5459 5458 5455 5452 5449 5448 5445 5442 5438 5435 5432 5430 5426 5423
5443 5442 5443 5443 5442 5441 5441 5442 5442 5441 5441 5441 5443 5446 5450 5453 5455 5457 5458 5458 5458 5459 5460 5460 5461 5461 5460 5458 5456 5454 5453 5450 5446 5441 5438 5435 5431 5427